GFSMW_500_spd_141.txt.gz
Wind_Speed
43 46 45 48 49 48 49 50 51 51 50 50 49 48 47 46 48 48 48 49 50 52 53 55 55 56 57 58 59 61 62 64 65 65 61 59 60 61 56 52 48 45 44
48 48 52 54 55 56 56 57 57 57 56 54 52 50 48 47 47 47 49 48 50 52 52 54 55 57 59 61 62 63 66 69 72 71 67 63 62 63 63 58 54 51 49
52 52 58 59 59 58 57 58 58 57 55 51 49 47 47 46 46 45 46 47 48 47 50 52 53 55 57 59 61 63 66 67 71 74 73 70 70 63 60 63 63 60 55
57 59 60 57 53 53 56 58 57 55 55 51 47 45 44 43 45 45 45 46 47 48 49 50 51 54 56 57 59 61 63 64 65 71 73 71 68 68 67 63 66 68 67
60 58 53 48 53 56 57 57 55 52 48 46 44 43 43 43 44 44 46 47 48 49 51 53 55 56 57 57 57 59 60 62 64 68 71 68 66 62 65 63 59 62 67
53 51 50 56 59 56 53 52 50 48 45 43 42 43 42 42 43 44 46 48 50 52 53 53 53 53 55 55 54 56 58 60 61 63 63 63 62 61 62 60 56 58 58
52 55 55 52 51 51 52 40 43 45 44 43 43 42 41 43 44 46 47 49 51 51 52 52 51 50 48 48 50 52 53 55 56 55 58 58 56 58 59 61 57 52 55
49 43 44 49 45 51 38 38 43 43 44 45 46 47 46 46 46 47 48 49 50 51 49 48 48 46 46 46 48 48 50 53 54 59 56 55 57 57 58 56 55 54 48
44 47 51 46 48 42 41 39 38 37 42 46 49 47 48 49 48 50 51 50 51 50 45 43 43 43 45 46 44 45 48 47 42 44 47 51 55 53 52 52 53 45 37
34 47 42 50 42 35 36 35 38 41 44 46 48 49 50 51 51 50 53 53 52 46 40 39 40 40 40 41 38 39 40 43 45 43 45 48 48 49 45 47 47 44 40
48 43 41 39 41 39 34 36 37 37 40 41 44 47 46 46 47 48 48 49 46 40 34 33 34 35 35 35 37 39 41 40 40 41 45 46 44 46 46 44 45 45 40
34 37 46 53 48 36 28 26 32 38 40 40 42 46 47 47 48 45 42 42 38 35 32 31 31 30 30 31 34 35 37 38 39 42 43 43 42 44 45 45 43 43 44
58 58 45 40 40 38 32 33 40 41 42 41 44 44 46 48 48 48 44 44 39 36 34 35 33 31 28 26 25 26 28 33 35 38 40 43 44 46 50 49 49 48 46
45 44 50 44 39 41 43 42 36 37 42 43 47 48 50 50 51 49 43 41 36 33 32 33 33 31 30 27 25 26 27 29 31 34 36 39 43 47 50 53 51 50 51
45 41 41 47 51 46 50 43 36 39 42 44 46 47 51 50 47 43 37 34 33 31 30 30 29 28 27 26 27 29 31 31 32 35 33 31 33 38 43 50 52 51 51
43 46 46 47 39 48 50 38 40 41 47 48 49 48 46 43 38 38 37 36 36 35 32 30 26 26 24 25 24 26 32 34 33 31 33 33 36 36 33 35 43 44 45
46 45 49 55 43 36 38 41 45 46 47 49 42 40 38 37 38 36 36 36 37 38 33 29 26 24 23 22 18 21 23 31 26 26 22 23 25 26 26 22 19 24 33
51 50 51 44 37 37 40 42 44 46 44 40 38 39 37 36 33 32 33 35 37 34 31 27 25 22 21 17 16 18 18 20 10 9 9 12 10 16 19 19 17 12 14
44 42 43 41 39 39 41 42 43 42 37 37 38 37 35 31 31 32 31 31 32 25 23 25 21 18 16 16 15 17 17 13 4 8 8 12 16 18 23 26 18 14 10
39 39 41 41 41 41 42 43 38 34 36 36 35 33 30 31 33 30 29 30 27 27 21 19 14 14 14 14 15 14 16 10 6 5 6 10 14 17 20 23 27 25 12
36 35 39 40 41 41 41 33 33 34 34 32 31 28 29 31 28 28 28 24 22 18 14 11 11 14 16 17 16 15 13 11 6 6 8 10 13 14 17 18 19 20 21
31 31 35 37 38 34 29 32 32 32 30 29 28 27 25 24 27 25 20 15 14 15 11 10 15 18 21 19 17 15 14 12 10 8 9 9 12 15 17 19 19 19 17
34 34 35 35 29 29 29 28 28 26 26 26 24 22 22 24 21 16 12 13 14 12 10 13 17 15 14 14 14 14 14 14 13 12 11 11 12 14 16 18 20 21 21
33 34 33 27 26 26 25 24 22 22 22 21 20 19 18 19 15 10 9 12 12 11 12 14 13 9 8 8 8 10 12 14 14 15 16 17 18 20 21 23 24 24 25
34 30 25 24 23 22 21 21 20 20 18 17 16 13 14 15 10 10 13 13 13 14 14 12 10 9 10 11 12 14 16 18 20 21 22 24 25 26 28 30 32 32 32
25 24 23 22 22 21 20 20 19 17 15 15 12 12 11 11 11 13 15 16 16 16 15 13 11 12 13 14 16 18 20 21 23 25 26 27 28 29 32 34 36 37 38

GFSMW_500_spd_144.txt.gz
Wind_Speed
42 43 45 48 49 51 51 50 51 52 52 52 50 49 49 50 51 53 54 54 54 56 56 56 56 56 55 55 56 56 57 59 60 62 62 62 60 56 56 55 51 49 48
44 46 48 49 53 55 57 58 59 59 57 52 52 53 52 52 52 52 52 53 54 54 54 55 56 56 56 56 57 58 58 60 61 62 63 64 66 61 59 58 58 55 51
49 52 53 53 54 56 59 60 60 56 55 56 54 53 51 51 51 51 51 51 51 52 52 53 53 53 53 54 55 56 57 58 61 63 65 66 66 65 63 59 60 63 62
53 54 56 55 56 57 57 56 52 56 59 56 53 47 46 46 47 49 50 50 50 50 50 50 51 51 52 53 54 55 57 59 61 64 65 67 68 68 65 63 62 59 61
56 55 53 46 47 52 49 54 58 58 52 53 42 42 42 44 47 48 50 51 51 50 51 51 52 53 55 56 57 59 62 63 65 67 68 69 68 69 68 65 61 62 62
55 49 45 46 46 49 53 57 56 51 52 45 44 43 42 42 43 44 46 47 49 50 52 53 54 55 56 57 58 59 60 62 64 66 65 63 63 65 66 65 60 56 54
50 44 45 44 48 53 53 54 53 48 49 47 42 41 41 41 44 46 48 49 51 52 53 54 55 57 59 58 56 54 55 56 56 56 57 59 61 63 65 64 59 53 48
46 44 45 49 50 50 50 51 49 50 53 49 40 37 38 41 44 47 47 48 51 53 55 57 58 55 53 54 51 52 51 49 50 53 55 55 54 56 57 56 54 49 44
39 40 38 37 45 47 49 50 50 56 55 48 41 42 42 43 43 45 48 50 52 52 53 52 54 52 54 49 49 47 46 45 47 47 45 47 48 45 45 50 50 49 49
36 32 38 39 41 49 51 45 46 48 49 45 43 43 42 40 41 46 50 50 50 49 51 49 50 50 45 44 41 39 39 42 42 41 41 42 44 45 44 41 44 46 46
48 48 52 52 52 46 44 44 46 48 52 46 39 35 36 38 40 44 48 48 47 46 48 47 46 42 39 37 35 33 34 36 38 40 42 43 41 40 37 37 40 40 43
46 50 49 45 45 45 51 49 43 44 38 36 34 37 39 38 39 44 45 46 46 45 48 49 44 41 39 38 35 32 31 32 32 35 39 38 40 41 41 41 39 39 38
52 51 50 47 48 46 47 49 51 41 43 34 32 31 36 36 39 43 45 47 47 47 46 45 40 37 37 37 34 32 28 25 26 27 32 34 36 38 41 43 45 45 43
46 45 46 48 47 40 43 44 38 47 46 34 32 36 36 39 40 43 44 47 45 43 41 37 35 33 33 35 32 30 26 25 24 26 28 29 29 30 31 34 42 48 51
49 47 46 43 43 43 41 38 45 53 50 41 38 41 43 41 41 41 40 39 41 37 37 37 36 33 31 31 28 26 25 24 25 26 28 31 32 31 28 32 36 41 48
47 43 41 43 46 48 47 49 49 46 46 41 41 41 43 40 38 37 38 35 37 35 36 37 36 36 33 30 25 23 22 21 22 23 27 29 31 32 35 35 37 30 30
40 43 45 47 49 51 51 49 45 45 41 43 43 41 41 37 35 37 35 36 33 33 34 36 36 34 32 29 24 23 20 16 18 19 21 22 17 18 19 20 23 21 17
45 47 46 46 45 45 45 42 43 44 42 41 40 39 36 36 36 36 34 30 31 35 34 35 36 32 28 25 24 22 18 18 17 18 17 13 9 7 8 13 17 15 18
43 40 39 40 41 40 40 41 41 40 41 41 37 35 36 35 34 31 29 30 34 33 33 31 26 25 26 23 19 17 19 19 19 19 16 14 7 6 6 10 14 17 19
37 38 37 37 39 38 36 40 42 42 41 35 33 35 34 30 28 28 29 32 30 30 26 23 23 23 22 18 17 19 19 19 20 19 13 11 9 8 8 10 13 15 16
34 34 33 36 34 33 36 39 39 37 31 31 33 32 27 27 28 28 28 28 27 23 19 15 17 20 15 16 17 18 19 18 19 17 17 14 10 9 8 9 13 15 16
34 37 37 36 37 36 36 36 29 29 29 30 29 26 25 26 26 26 25 22 20 16 14 15 18 14 16 19 19 19 17 17 17 18 18 16 14 10 9 10 11 13 15
33 34 33 35 35 35 33 29 29 28 28 27 23 23 24 24 24 20 17 14 11 11 14 15 15 14 16 15 15 13 13 14 16 17 18 16 15 13 14 15 17 17 19
32 35 35 34 34 31 27 26 25 25 23 21 21 22 22 21 18 14 10 9 12 13 16 16 16 16 15 13 10 10 10 11 13 15 15 15 16 18 20 21 23 24 25
34 34 34 32 28 26 25 24 24 22 21 21 20 19 18 17 15 12 13 14 14 14 16 17 16 17 14 13 11 10 11 14 16 17 18 19 21 23 24 25 27 29 31
31 31 30 27 27 25 24 24 22 20 20 20 19 17 17 17 16 13 14 16 12 15 19 19 20 19 17 18 18 18 19 20 20 21 22 24 25 27 29 32 33 35 37

GFSMW_500_spd_150.txt.gz
Wind_Speed
39 40 41 42 44 47 48 49 52 53 55 56 56 57 58 60 61 60 61 58 59 57 56 53 54 52 52 50 52 53 54 53 54 56 57 58 59 58 55 52 49 45 44
44 45 46 49 49 50 51 54 55 57 60 61 61 61 63 67 68 68 66 61 53 48 48 49 47 48 51 52 54 54 56 56 58 57 58 58 59 58 57 54 50 48 46
50 51 52 52 53 54 55 56 58 61 62 65 67 66 65 66 64 58 59 55 48 47 43 44 44 45 49 53 55 55 56 57 59 60 58 58 57 58 58 57 56 52 50
56 56 55 57 56 56 59 60 61 62 64 65 63 64 63 57 56 57 55 50 50 46 40 40 41 41 43 45 48 50 51 51 51 55 57 58 58 58 57 59 58 56 54
60 58 58 58 58 59 61 63 61 62 60 59 57 57 57 56 59 61 54 49 48 44 42 42 44 43 43 43 44 46 47 47 48 50 53 54 54 56 57 57 60 60 60
55 57 57 57 58 58 57 59 60 54 53 55 57 57 58 56 58 52 49 46 48 43 41 45 45 47 45 43 43 44 44 42 44 46 48 50 52 54 56 57 57 59 62
54 56 55 54 56 58 59 57 56 53 53 50 48 48 49 51 51 49 50 52 44 46 47 48 47 50 48 47 46 45 42 40 45 47 48 49 51 53 53 56 54 55 56
55 55 53 54 55 51 47 46 44 44 47 47 49 47 48 55 58 57 48 47 47 46 50 51 50 53 47 47 45 43 40 42 50 54 57 53 50 49 47 48 48 50 51
55 53 51 51 47 45 45 44 43 48 50 50 54 53 61 62 56 52 53 53 49 47 46 48 46 48 46 48 46 44 45 50 46 49 49 48 46 44 42 43 44 45 45
57 54 52 49 47 41 41 45 45 48 51 57 60 62 65 65 58 52 49 45 45 42 35 36 37 37 40 43 43 44 46 45 45 47 48 46 42 39 38 39 39 40 42
50 49 48 43 41 41 43 46 48 50 53 54 55 54 50 42 42 44 37 35 34 35 40 44 48 47 51 48 47 51 53 51 51 47 42 42 41 38 37 37 37 36 38
49 54 48 45 49 45 47 47 51 50 48 44 49 51 43 40 43 45 43 46 47 47 41 42 43 45 49 49 47 49 49 48 42 41 38 38 39 36 37 36 38 39 38
58 57 56 49 45 49 49 49 46 44 45 44 43 42 42 41 44 46 52 47 44 42 44 47 49 48 48 48 46 46 44 40 36 36 35 36 37 35 33 33 32 29 34
61 55 48 46 49 50 44 45 44 46 47 47 45 44 44 45 45 46 47 48 46 45 45 46 48 46 45 46 44 40 38 36 34 34 33 32 32 31 28 27 25 23 22
44 50 47 40 39 40 43 46 49 49 42 41 42 44 43 43 48 45 46 46 46 44 43 45 43 43 42 42 39 36 34 32 31 33 32 30 29 27 25 22 21 23 24
53 37 35 37 37 42 44 45 41 40 41 43 45 43 37 44 45 43 43 43 43 43 43 41 41 40 38 35 32 35 35 35 33 32 33 30 26 26 25 21 20 21 21
37 33 34 37 38 37 38 40 41 43 46 45 40 40 42 41 41 41 43 44 45 45 39 39 38 34 32 33 35 36 35 36 36 34 33 30 28 26 25 22 21 19 18
36 37 38 37 38 38 39 41 39 37 38 38 39 40 39 39 42 43 46 45 40 36 37 34 32 32 33 34 33 35 35 33 33 33 31 31 30 26 25 23 22 18 18
41 41 41 42 41 39 37 34 35 36 34 36 37 37 38 40 43 46 40 34 35 35 31 30 30 30 31 31 30 29 26 25 24 24 25 25 25 25 25 22 21 19 19
43 42 40 38 38 37 36 35 36 33 33 38 38 40 41 42 42 35 36 35 33 29 28 27 28 26 23 20 16 17 19 19 19 20 22 19 21 23 23 23 22 19 18
37 36 36 35 35 35 35 36 36 35 36 38 39 39 40 41 37 35 34 32 28 26 25 24 22 16 13 13 17 19 20 19 16 13 14 15 17 21 19 23 20 20 17
35 36 36 38 39 40 41 37 34 33 33 35 38 39 39 34 32 32 30 27 25 24 22 20 15 9 10 15 16 16 17 17 15 12 11 11 13 14 14 16 19 19 18
38 39 36 36 37 35 36 38 35 36 37 39 39 37 32 30 29 28 27 24 21 20 20 16 12 9 10 14 14 14 16 14 11 12 11 12 12 13 14 15 16 18 19
24 28 30 32 32 33 31 34 36 36 37 38 35 31 29 28 27 27 25 22 19 18 16 16 13 13 13 14 16 16 15 13 10 9 10 10 10 11 12 14 16 18 20
29 31 34 37 38 35 33 33 35 37 37 35 31 29 28 27 27 26 23 21 20 19 17 16 15 17 17 17 18 18 16 14 12 12 13 13 14 16 17 19 21 23 26
32 32 34 35 35 31 31 32 33 33 32 30 28 27 26 26 27 25 22 21 20 20 19 19 19 17 18 19 19 20 20 20 20 18 18 19 21 22 24 26 28 31 33

GFSMW_500_spd_153.txt.gz
Wind_Speed
40 41 40 40 40 42 43 45 46 48 50 51 51 52 56 57 57 56 58 60 61 62 63 65 63 61 61 60 56 48 48 49 47 46 48 56 56 58 60 57 55 53 51
46 46 46 46 47 47 47 48 50 53 54 55 56 58 59 59 62 59 60 60 61 61 59 57 53 50 48 44 41 40 43 48 50 53 55 56 58 59 59 57 54 53 51
51 50 51 50 50 51 52 53 53 55 57 57 58 60 61 60 61 64 64 58 55 53 54 51 47 43 40 38 39 39 42 43 45 46 48 48 48 49 55 53 52 50 50
54 53 54 53 53 55 55 53 53 55 57 59 60 60 60 60 61 59 55 54 54 53 48 43 41 42 47 44 41 42 43 42 40 40 40 41 44 44 42 46 46 47 48
55 56 56 57 57 57 56 55 56 57 57 57 57 58 59 59 55 52 50 49 46 46 46 46 45 43 41 41 41 40 47 46 42 38 36 34 33 33 33 34 40 43 47
56 57 59 58 57 54 53 55 57 57 56 54 54 53 54 54 51 51 48 46 42 50 53 52 49 48 46 49 49 45 49 46 44 41 35 29 32 37 37 37 38 42 45
59 58 56 53 52 55 56 55 53 54 54 52 54 54 50 50 51 51 48 48 55 60 59 53 48 49 53 47 47 48 47 46 43 43 39 36 36 40 41 39 45 44 45
60 57 56 57 54 52 51 45 46 49 50 51 52 48 51 48 51 49 58 61 63 60 58 53 52 48 48 46 44 47 45 48 46 47 44 43 39 38 43 49 49 49 47
58 56 55 55 48 45 46 45 46 46 49 47 45 43 48 48 49 56 59 59 53 50 52 49 47 43 43 40 37 38 38 37 41 40 43 42 43 47 47 50 49 50 49
57 54 53 51 47 43 42 43 44 41 44 42 44 47 48 49 50 46 44 43 40 43 44 46 44 38 38 40 42 44 43 46 46 46 48 51 50 51 52 50 50 46 45
54 52 50 47 46 47 45 42 45 47 45 44 44 47 46 47 47 45 42 44 42 44 44 46 49 50 50 45 43 44 46 49 50 47 48 49 47 47 48 47 46 43 40
53 50 50 51 49 47 45 46 47 49 44 42 44 44 42 41 43 44 43 43 42 44 45 45 47 48 46 45 46 50 51 49 48 46 46 46 43 44 42 40 41 41 39
51 52 52 53 53 50 44 47 43 40 37 41 44 47 44 47 45 42 43 43 42 43 45 46 47 47 46 46 47 48 46 43 42 42 41 40 39 39 37 36 38 37 35
49 55 52 52 50 47 45 45 43 42 45 46 48 44 45 41 39 42 44 43 45 49 46 45 44 43 43 44 44 43 42 40 38 37 37 36 36 36 35 32 31 31 30
48 43 45 50 44 48 48 41 44 48 48 44 42 42 39 41 43 41 37 43 44 44 43 43 44 44 45 42 40 39 39 37 35 34 35 36 35 34 32 31 27 26 24
42 42 46 49 43 38 39 44 46 43 42 40 41 41 42 40 37 39 40 40 39 41 43 44 46 45 39 38 37 35 34 34 35 37 38 37 37 36 33 30 28 26 24
55 46 36 30 30 30 32 34 35 37 39 40 40 41 36 36 37 38 37 38 40 42 45 46 40 37 37 34 32 32 33 35 36 36 37 37 37 37 33 31 30 26 25
34 32 31 31 32 33 36 37 39 39 39 39 36 35 34 33 36 37 38 39 40 42 39 37 36 34 31 31 31 31 31 30 29 30 32 34 36 35 31 32 30 26 24
37 36 37 37 37 38 39 40 39 36 34 34 34 34 36 43 39 40 42 40 40 39 37 36 32 30 30 28 27 23 20 18 21 23 24 24 22 20 22 23 26 26 24
38 39 39 38 35 35 36 36 35 33 32 35 34 34 39 41 42 43 42 40 38 36 35 30 28 29 27 23 18 15 16 20 21 22 23 23 19 20 18 17 24 23 23
34 34 34 32 32 30 30 31 32 32 34 36 34 34 37 40 39 40 40 38 34 33 29 27 27 25 22 16 14 14 17 19 20 20 18 16 14 13 14 15 18 20 21
29 30 30 31 31 31 33 36 37 39 39 38 36 37 37 38 39 40 37 33 32 28 27 26 22 18 16 14 14 13 16 18 18 15 11 11 11 11 12 12 12 13 16
31 31 31 30 32 34 34 34 34 35 34 35 36 38 38 39 38 36 33 31 29 28 26 24 18 15 14 14 13 15 15 16 17 16 12 10 11 10 9 10 10 11 12
30 26 24 25 26 29 32 34 34 33 33 32 34 36 36 35 35 33 30 29 27 26 25 23 18 16 17 16 14 15 15 16 15 15 13 10 10 9 8 9 10 11 12
18 19 23 27 31 33 36 38 35 33 32 34 33 34 34 33 32 30 28 26 25 25 25 23 20 19 20 16 15 16 15 16 16 17 18 18 17 15 16 16 17 19 21
18 22 25 28 28 30 31 32 32 32 32 32 30 30 29 29 28 28 26 24 25 25 25 24 22 23 23 21 20 19 19 18 18 17 19 19 20 21 22 23 24 25 27